Flag for Canada Weather past 2 weeks in Norman Wells, Northwest Territories, Canada

Now
-4 °F

Passing clouds.


Feels Like: -4 °F
Forecast: 14 / 28 °F
Wind: No wind

Location: Norman Wells

Current Time: Feb 26, 2015 at 11:31:46 PM

Latest Report: Feb 26, 2015 at 11:00 PM


Visibility: 30 mi

Pressure: 30.28 "Hg

Humidity: 84%

Dew point: -8 °F

Location of Norman WellsLocation

Historic Weather in Norman Wells — Graph

°F

Norman Wells temperature yesterday

Maximum temperature yesterday: 12 °F (at 4:00 PM)
Minimum temperature yesterday: -2 °F (at 12:00 AM)
Average temperature yesterday: 5 °F

Past Weeks' High & Low Weather Summary

 TemperatureHumidityPressure
High23 °F (Feb 22, 4:00 PM)93% (Feb 22, 10:00 PM)30.86 "Hg (Feb 22, 10:00 PM)
Low-26 °F (Feb 12, 9:00 AM)60% (Feb 13, 9:00 AM)29.87 "Hg (Feb 18, 6:00 PM)
Average2 °F77%30.29 "Hg
* Reported Feb 11 10:00 PM — Feb 26 10:00 PM, Norman Wells, Weather by CustomWeather, © 2015

Note: Actual official high and low records may vary slightly from our data, if they occured in-between our weather recording intervals... More about our weather records

Advertising

Norman Wells weather history for previous 24 hours

 ConditionsComfort  
Time TempWeatherWind HumidityBarometerVisibility
10:00 PM
Thu, Feb 26
-2 °FPassing clouds.3 mph84%30.28 "Hg30 mi
9:00 PM9 °FPassing clouds.2 mph92%30.29 "Hg30 mi
8:00 PM12 °FPartly cloudy.3 mph79%30.29 "Hg30 mi
7:00 PM12 °FMore clouds than sun.7 mph79%30.31 "Hg30 mi
6:00 PM14 °FPartly sunny.3 mph79%30.33 "Hg30 mi
5:00 PM14 °FPartly sunny.No wind79%30.36 "Hg30 mi
4:00 PM10 °FPartly sunny.5 mph85%30.37 "Hg30 mi
3:00 PM9 °FPartly sunny.5 mph85%30.38 "Hg30 mi
2:00 PM9 °FPartly sunny.3 mph78%30.40 "Hg30 mi
1:00 PM7 °FScattered clouds.6 mph85%30.42 "Hg30 mi
12:00 PM1 °FPassing clouds.7 mph85%30.44 "Hg30 mi
11:00 AM1 °FPassing clouds.3 mph85%30.46 "Hg30 mi
10:00 AM0 °FScattered clouds.6 mph84%30.47 "Hg30 mi
9:00 AM-9 °FPassing clouds.5 mph77%30.49 "Hg30 mi
8:00 AM-2 °FPassing clouds.5 mph84%30.50 "Hg30 mi
7:00 AM-8 °FPassing clouds.5 mph77%30.51 "Hg30 mi
6:00 AM-8 °FPassing clouds.2 mph77%30.52 "Hg30 mi
5:00 AM-4 °FPassing clouds.No wind84%30.53 "Hg30 mi
4:00 AM5 °FPassing clouds.3 mph85%30.54 "Hg30 mi
3:00 AM3 °FPassing clouds.3 mph85%30.54 "Hg30 mi
2:00 AM3 °FPassing clouds.6 mph85%30.53 "Hg30 mi
1:00 AM7 °FPassing clouds.6 mph85%30.54 "Hg30 mi
12:00 AM3 °FPassing clouds.5 mph85%30.54 "Hg30 mi
11:00 PM
Wed, Feb 25
5 °FPassing clouds.6 mph85%30.54 "Hg30 mi
Weather by CustomWeather, © 2015

See weather overviewHow to use our weather pages